Weather History for Kalamazoo, MI

Change the Weather History Date:

Monday, February 18, 2013

  Actual Average Record
Temperature  
Mean Temperature 35 °F 27 °F  
Max Temperature 49 °F 35 °F 61 °F (1961)
Min Temperature 21 °F 20 °F -4 °F (1979)
Degree Days  
Heating Degree Days 30 38  
Month to date heating degree days 734 705  
Since 1 July heating degree days 4185 4413  
Cooling Degree Days 0 0  
Month to date cooling degree days 0 0  
Year to date cooling degree days 0 0  
Moisture  
Dew Point 27 °F    
Average Humidity 73    
Maximum Humidity 92    
Minimum Humidity 53    
Precipitation  
Precipitation 0.08 in 0.05 in 0.28 in (1976)
Month to date precipitation 0.47 0.86  
Year to date precipitation 3.87 2.65  
Sea Level Pressure  
Sea Level Pressure 29.82 in    
Wind  
Wind Speed 12 mph (SSE)    
Max Wind Speed 25 mph    
Max Gust Speed 32 mph    
Visibility 9 miles    
Events Rain    
T = Trace of Precipitation, MM = Missing Value Source: NWS Daily Summary

Daily Weather History Graph

Daily Weather History Graph

Search for Another Location

Airport:

Trip Planner

Search our weather history database for the weather conditions in past years. The results will help you decide how hot, cold, wet, or windy it might be!

Date:

Astronomy

Feb. 18, 2013 Rise Set
Actual Time 7:33 AM EST 6:18 PM EST
Civil Twilight 7:05 AM EST 6:47 PM EST
Nautical Twilight 6:32 AM EST 7:20 PM EST
Astronomical Twilight 6:00 AM EST 7:52 PM EST
Moon 12:01 PM EST (2/18) 2:16 AM EST (2/18)
Length of Visible Light 11h 42m
Length of Day
10h 45m
First Quarter, 58% of the Moon is Illuminated
Feb 18
First Quarter
Feb 25
Full
Mar 4
Last Quarter
Mar 11
New
Mar 19
First Quarter

Hourly Weather History & Observations

Time (EST) Temp. Windchill Dew Point Humidity Pressure Visibility Wind Dir Wind Speed Gust Speed Precip Events Conditions
12:53 AM 23.0 °F 15.8 °F 12.0 °F 63% 30.16 in 10.0 mi SSE 5.8 mph - N/A   Clear
1:53 AM 23.0 °F 13.9 °F 12.0 °F 63% 30.15 in 10.0 mi SSE 8.1 mph - N/A   Clear
2:53 AM 23.0 °F 13.9 °F 12.0 °F 63% 30.13 in 10.0 mi SSE 8.1 mph - N/A   Clear
3:53 AM 24.1 °F 14.4 °F 12.0 °F 60% 30.09 in 10.0 mi SSE 9.2 mph - N/A   Overcast
4:53 AM 25.0 °F 16.3 °F 12.9 °F 60% 30.06 in 10.0 mi SSE 8.1 mph - N/A   Overcast
5:53 AM 25.0 °F 16.3 °F 12.9 °F 60% 30.03 in 10.0 mi SSE 8.1 mph - N/A   Clear
6:53 AM 25.0 °F 14.8 °F 12.9 °F 60% 29.99 in 10.0 mi SSE 10.4 mph 18.4 mph N/A   Clear
7:53 AM 26.1 °F 16.8 °F 14.0 °F 60% 29.97 in 10.0 mi SSE 9.2 mph - N/A   Clear
8:53 AM 28.4 °F 18.0 °F 15.8 °F 59% 29.90 in 10.0 mi SSE 12.7 mph 21.9 mph N/A   Clear
9:53 AM 30.9 °F 21.2 °F 17.1 °F 57% 29.93 in 10.0 mi SSE 12.7 mph 20.7 mph N/A   Clear
10:53 AM 34.0 °F 24.6 °F 19.9 °F 56% 29.90 in 10.0 mi South 13.8 mph 24.2 mph N/A   Clear
11:53 AM 37.9 °F 29.6 °F 24.1 °F 57% 29.86 in 10.0 mi South 13.8 mph 19.6 mph N/A   Clear
12:53 PM 42.1 °F 35.2 °F 27.0 °F 55% 29.83 in 10.0 mi South 12.7 mph 24.2 mph N/A   Clear
1:53 PM 46.9 °F - 32.0 °F 56% 29.79 in 10.0 mi South 17.3 mph 24.2 mph N/A   Clear
2:53 PM 48.0 °F - 34.0 °F 58% 29.75 in 10.0 mi South 12.7 mph 20.7 mph N/A   Clear
3:53 PM 48.0 °F - 35.1 °F 61% 29.73 in 10.0 mi South 10.4 mph - N/A   Mostly Cloudy
4:40 PM 48.2 °F - 37.4 °F 66% 29.68 in 10.0 mi South 12.7 mph - N/A   Overcast
4:53 PM 48.0 °F - 37.9 °F 68% 29.70 in 10.0 mi South 11.5 mph - N/A   Overcast
5:53 PM 45.0 °F 39.3 °F 41.0 °F 86% 29.70 in 2.5 mi South 11.5 mph 23.0 mph 0.00 in Rain Light Rain
6:53 PM 44.1 °F 38.6 °F 42.1 °F 93% 29.69 in 2.5 mi SSE 10.4 mph 17.3 mph 0.04 in Rain Light Rain
7:53 PM 44.1 °F 38.6 °F 41.0 °F 89% 29.65 in 7.0 mi South 10.4 mph - 0.00 in Rain Light Rain
8:53 PM 45.0 °F 37.6 °F 39.0 °F 80% 29.62 in 10.0 mi South 17.3 mph 26.5 mph 0.00 in Rain Light Rain
9:53 PM 45.0 °F 38.2 °F 39.0 °F 80% 29.59 in 10.0 mi South 15.0 mph 24.2 mph 0.01 in Rain Light Rain
10:53 PM 44.1 °F 36.2 °F 41.0 °F 89% 29.54 in 5.0 mi South 18.4 mph 26.5 mph 0.01 in Rain Light Rain
11:00 PM 44.6 °F 36.6 °F 41.0 °F 87% 29.51 in 6.0 mi South 19.6 mph 31.1 mph 0.00 in Rain Light Rain
11:53 PM 44.6 °F 36.4 °F 42.8 °F 93% 29.48 in 7.0 mi South 20.7 mph 32.2 mph N/A Rain Light Rain